Temp
-10 -11 -10 -10 -10 -8 -7 -8 -10 -9 -10 -9 -9 -9 -9 -9 -8 -8 -8 -8 -8 -9 -9 -9 -8 -9 -9 -9 -9 -9 -9 -10 -10 -10 -10 -10 -10 -10 -10 -9 -9 -9 -9 -9 -10 -9 -9 -9 -9
-11 -11 -11 -10 -9 -8 -7 -8 -9 -9 -9 -9 -9 -9 -9 -8 -9 -9 -9 -9 -9 -9 -9 -9 -9 -8 -9 -9 -9 -9 -10 -10 -10 -10 -10 -10 -10 -10 -10 -9 -9 -9 -9 -9 -9 -9 -9 -9 -9
-12 -12 -11 -11 -10 -8 -7 -9 -10 -9 -9 -9 -9 -9 -9 -8 -9 -9 -9 -9 -9 -9 -9 -9 -9 -9 -9 -9 -10 -10 -10 -10 -10 -10 -10 -10 -10 -9 -10 -10 -10 -10 -10 -10 -9 -10 -10 -10 -10
-13 -14 -12 -11 -9 -8 -8 -10 -11 -9 -9 -9 -9 -9 -9 -9 -9 -9 -9 -9 -9 -9 -9 -9 -9 -9 -9 -9 -9 -10 -10 -10 -10 -10 -10 -10 -10 -9 -9 -9 -9 -10 -10 -10 -10 -10 -11 -10 -10
-14 -15 -14 -10 -9 -9 -8 -12 -11 -10 -9 -10 -9 -9 -10 -9 -9 -9 -10 -9 -9 -9 -9 -9 -9 -9 -9 -9 -10 -10 -10 -10 -10 -10 -11 -10 -10 -9 -9 -9 -9 -10 -10 -10 -10 -10 -10 -10 -10
-16 -15 -14 -11 -9 -9 -9 -12 -10 -10 -10 -10 -10 -10 -10 -10 -9 -9 -10 -9 -9 -9 -9 -9 -9 -9 -9 -9 -10 -10 -10 -10 -10 -11 -11 -10 -10 -9 -9 -9 -10 -10 -10 -10 -10 -10 -10 -10 -10
-17 -16 -15 -12 -10 -9 -9 -12 -11 -10 -10 -9 -10 -10 -10 -10 -9 -9 -10 -10 -9 -9 -9 -9 -9 -9 -9 -9 -10 -10 -10 -10 -10 -10 -11 -10 -10 -9 -9 -10 -10 -10 -10 -10 -10 -10 -10 -10 -10
-18 -17 -16 -13 -10 -9 -11 -13 -11 -11 -10 -10 -10 -10 -10 -10 -10 -10 -10 -10 -9 -9 -9 -9 -9 -9 -9 -9 -9 -9 -10 -10 -10 -10 -10 -10 -10 -9 -9 -9 -10 -10 -10 -10 -10 -11 -11 -10 -11
-19 -17 -16 -14 -11 -10 -12 -14 -13 -11 -12 -10 -10 -11 -11 -10 -11 -10 -10 -10 -10 -10 -10 -10 -10 -9 -9 -9 -9 -10 -10 -10 -10 -10 -10 -10 -10 -10 -9 -9 -9 -10 -10 -11 -10 -10 -10 -10 -11
-20 -18 -16 -15 -13 -10 -14 -15 -13 -11 -11 -11 -11 -11 -11 -11 -11 -11 -11 -11 -11 -10 -10 -10 -10 -10 -10 -10 -10 -10 -10 -10 -10 -10 -10 -10 -10 -10 -9 -9 -9 -9 -10 -11 -11 -11 -11 -11 -11
-20 -17 -17 -16 -14 -13 -15 -16 -14 -12 -11 -11 -10 -11 -11 -11 -11 -11 -11 -11 -11 -11 -10 -10 -10 -10 -10 -10 -10 -10 -10 -10 -11 -10 -10 -10 -10 -10 -10 -10 -10 -10 -10 -11 -11 -11 -11 -11 -12
-20 -18 -17 -17 -17 -16 -16 -16 -14 -12 -12 -12 -12 -13 -12 -12 -11 -11 -12 -11 -11 -11 -11 -11 -11 -11 -11 -10 -10 -10 -10 -10 -11 -10 -10 -10 -10 -10 -10 -10 -10 -10 -10 -11 -11 -12 -12 -12 -12
-20 -18 -17 -17 -17 -17 -17 -16 -14 -13 -14 -14 -13 -13 -13 -12 -12 -12 -12 -12 -12 -12 -12 -11 -11 -11 -11 -11 -11 -11 -10 -10 -11 -11 -11 -10 -10 -10 -10 -10 -10 -10 -11 -11 -12 -12 -12 -12 -13
-20 -19 -18 -17 -17 -17 -17 -16 -15 -14 -14 -14 -13 -13 -12 -12 -12 -12 -12 -13 -12 -12 -12 -12 -12 -11 -11 -11 -11 -11 -11 -11 -11 -11 -11 -11 -11 -10 -10 -10 -10 -11 -11 -12 -12 -13 -13 -13 -13
-20 -18 -18 -16 -17 -17 -17 -16 -15 -15 -14 -14 -13 -13 -13 -13 -12 -13 -13 -13 -13 -13 -13 -12 -12 -12 -11 -11 -11 -11 -11 -11 -11 -11 -11 -11 -11 -11 -10 -10 -11 -12 -12 -12 -13 -13 -13 -14 -14
-20 -19 -18 -16 -17 -17 -17 -16 -15 -14 -14 -14 -13 -13 -13 -12 -13 -13 -13 -12 -13 -13 -13 -13 -12 -12 -12 -12 -12 -12 -11 -11 -11 -11 -11 -11 -11 -11 -11 -11 -12 -12 -13 -13 -13 -14 -14 -14 -14
-20 -19 -18 -18 -16 -17 -17 -16 -16 -15 -14 -14 -14 -13 -13 -13 -12 -13 -13 -13 -13 -13 -13 -13 -13 -12 -12 -12 -12 -12 -12 -12 -11 -11 -11 -11 -11 -12 -12 -12 -13 -13 -13 -14 -14 -14 -14 -14 -14
-19 -20 -18 -17 -17 -17 -16 -16 -16 -14 -14 -14 -15 -14 -13 -13 -13 -13 -13 -13 -13 -13 -13 -13 -13 -12 -12 -12 -12 -12 -12 -12 -12 -12 -11 -11 -12 -12 -13 -13 -13 -13 -14 -14 -14 -14 -14 -15 -15
-19 -18 -18 -17 -17 -16 -16 -16 -15 -13 -14 -14 -15 -15 -13 -13 -13 -13 -13 -13 -13 -13 -13 -13 -13 -13 -12 -12 -12 -12 -12 -12 -12 -12 -12 -12 -12 -12 -13 -13 -13 -13 -14 -14 -14 -14 -15 -15 -15
-18 -17 -18 -17 -17 -16 -16 -16 -16 -15 -15 -15 -15 -14 -14 -14 -13 -13 -13 -13 -13 -13 -13 -13 -13 -13 -13 -12 -12 -12 -12 -12 -12 -12 -12 -12 -12 -13 -13 -13 -14 -14 -14 -15 -15 -15 -15 -15 -15
-18 -18 -17 -17 -17 -16 -16 -15 -16 -15 -15 -15 -15 -15 -15 -14 -14 -13 -13 -13 -13 -13 -13 -13 -13 -13 -13 -13 -12 -12 -12 -13 -13 -13 -13 -13 -13 -13 -13 -14 -14 -15 -15 -15 -15 -15 -15 -15 -15
-19 -18 -17 -16 -17 -17 -17 -16 -15 -15 -15 -15 -15 -15 -14 -14 -14 -14 -14 -13 -13 -13 -13 -13 -13 -13 -13 -13 -13 -13 -13 -13 -13 -13 -13 -13 -13 -13 -14 -14 -14 -15 -15 -15 -15 -15 -15 -15 -15
-18 -18 -18 -17 -17 -17 -16 -17 -16 -16 -16 -15 -15 -14 -14 -14 -14 -14 -14 -13 -13 -13 -13 -13 -13 -13 -13 -12 -13 -13 -13 -13 -13 -13 -13 -13 -13 -14 -14 -14 -15 -15 -15 -15 -15 -15 -15 -15 -15
-18 -18 -18 -17 -17 -17 -16 -16 -16 -16 -14 -15 -15 -14 -14 -14 -14 -14 -14 -13 -13 -13 -13 -13 -13 -13 -13 -13 -13 -13 -13 -13 -13 -14 -14 -14 -14 -14 -14 -15 -15 -15 -15 -15 -15 -15 -15 -15 -15
-18 -18 -17 -17 -17 -17 -16 -16 -16 -16 -15 -15 -15 -14 -14 -14 -14 -14 -14 -14 -14 -14 -14 -14 -13 -14 -14 -14 -13 -13 -13 -13 -13 -14 -14 -14 -14 -14 -14 -15 -15 -15 -16 -16 -16 -15 -15 -15 -15
-18 -18 -18 -17 -17 -17 -17 -16 -15 -15 -16 -16 -16 -16 -16 -15 -15 -14 -14 -14 -14 -14 -14 -14 -13 -14 -14 -14 -14 -14 -14 -13 -13 -14 -15 -15 -14 -14 -14 -15 -15 -15 -16 -16 -16 -16 -15 -15 -15
-17 -16 -16 -17 -16 -16 -16 -16 -16 -15 -15 -15 -15 -15 -14 -14 -14 -15 -14 -14 -14 -14 -14 -14 -14 -14 -14 -14 -14 -14 -14 -14 -14 -15 -16 -15 -15 -15 -15 -15 -15 -15 -15 -15 -16 -15 -15 -15 -15
-17 -16 -16 -16 -16 -16 -16 -15 -14 -15 -14 -15 -15 -15 -15 -14 -14 -15 -15 -15 -15 -15 -15 -15 -15 -14 -15 -14 -14 -14 -14 -14 -14 -15 -15 -15 -15 -15 -15 -15 -15 -15 -15 -16 -15 -16 -15 -15 -15
-16 -16 -15 -15 -15 -15 -15 -14 -14 -14 -15 -15 -15 -15 -15 -15 -15 -15 -15 -15 -15 -15 -15 -15 -15 -15 -15 -15 -15 -15 -15 -15 -14 -14 -15 -15 -15 -15 -16 -16 -15 -15 -16 -16 -16 -16 -15 -15 -15
-16 -15 -15 -15 -15 -15 -15 -14 -14 -14 -15 -14 -14 -15 -17 -16 -16 -16 -16 -16 -16 -15 -15 -15 -15 -15 -15 -15 -15 -15 -15 -15 -15 -15 -15 -15 -15 -15 -15 -15 -15 -15 -15 -16 -16 -16 -16 -15 -15
Height
5767 5770 5774 5777 5783 5785 5792 5801 5801 5801 5801 5802 5806 5813 5817 5818 5820 5826 5826 5827 5829 5830 5832 5834 5836 5837 5838 5838 5839 5841 5843 5845 5846 5848 5849 5850 5852 5853 5854 5855 5856 5858 5859 5861 5863 5864 5864 5865 5865
5755 5758 5761 5765 5772 5779 5788 5794 5796 5798 5798 5801 5804 5809 5814 5816 5817 5820 5823 5824 5827 5829 5831 5833 5834 5836 5838 5839 5840 5841 5842 5844 5846 5849 5849 5850 5852 5854 5855 5855 5857 5858 5859 5859 5861 5862 5863 5864 5865
5741 5743 5745 5751 5761 5774 5783 5788 5790 5792 5796 5799 5799 5804 5809 5813 5814 5816 5819 5822 5824 5827 5830 5832 5833 5835 5837 5839 5840 5841 5842 5844 5846 5848 5849 5850 5852 5853 5855 5856 5857 5857 5859 5860 5861 5862 5864 5864 5864
5721 5722 5728 5734 5756 5771 5778 5783 5782 5785 5791 5794 5796 5800 5804 5807 5811 5812 5815 5819 5822 5825 5828 5830 5832 5834 5836 5839 5840 5842 5843 5844 5846 5848 5849 5850 5851 5852 5852 5853 5857 5858 5859 5860 5860 5861 5862 5863 5863
5699 5703 5706 5726 5750 5761 5770 5773 5774 5779 5786 5789 5793 5796 5800 5801 5806 5808 5812 5816 5819 5823 5825 5829 5831 5833 5835 5838 5839 5841 5842 5844 5845 5846 5849 5849 5850 5851 5851 5851 5854 5856 5858 5860 5861 5861 5861 5862 5862
5677 5683 5688 5713 5741 5753 5761 5764 5768 5773 5780 5784 5789 5792 5795 5799 5801 5805 5808 5812 5816 5820 5822 5826 5828 5830 5834 5837 5839 5840 5842 5843 5844 5846 5848 5849 5850 5851 5851 5853 5854 5855 5858 5859 5861 5862 5862 5863 5863
5659 5666 5678 5712 5728 5738 5753 5752 5759 5765 5772 5778 5783 5786 5791 5794 5796 5801 5804 5808 5813 5817 5820 5823 5825 5829 5832 5834 5837 5839 5841 5842 5843 5845 5847 5848 5849 5850 5851 5852 5854 5856 5856 5858 5859 5860 5862 5862 5863
5644 5657 5671 5691 5706 5730 5740 5743 5752 5755 5764 5771 5778 5781 5787 5791 5793 5797 5801 5805 5809 5813 5817 5820 5822 5826 5828 5832 5835 5837 5839 5841 5841 5843 5846 5847 5848 5849 5851 5851 5853 5855 5856 5857 5858 5859 5860 5860 5861
5632 5649 5658 5675 5692 5718 5726 5733 5741 5746 5756 5766 5773 5778 5784 5786 5788 5793 5797 5802 5806 5810 5813 5816 5820 5823 5826 5830 5834 5836 5837 5839 5840 5841 5844 5845 5847 5849 5850 5852 5853 5853 5854 5856 5856 5857 5857 5859 5859
5620 5638 5652 5667 5679 5701 5718 5725 5732 5740 5749 5758 5766 5772 5777 5783 5786 5789 5794 5798 5802 5806 5810 5813 5817 5821 5824 5827 5832 5834 5835 5836 5838 5840 5842 5844 5845 5847 5848 5850 5851 5851 5852 5854 5854 5855 5856 5857 5857
5612 5629 5643 5661 5671 5686 5707 5714 5725 5735 5743 5756 5765 5770 5774 5781 5784 5788 5790 5794 5798 5802 5806 5810 5813 5817 5820 5823 5828 5831 5833 5834 5836 5838 5840 5842 5844 5845 5846 5846 5848 5850 5850 5851 5852 5853 5855 5855 5855
5606 5627 5639 5652 5666 5680 5695 5707 5718 5731 5741 5751 5758 5765 5771 5776 5780 5784 5787 5791 5795 5799 5802 5806 5809 5814 5818 5820 5824 5827 5830 5833 5834 5836 5837 5840 5841 5843 5844 5844 5845 5847 5849 5849 5850 5851 5852 5853 5854
5603 5613 5631 5649 5660 5673 5688 5696 5713 5723 5731 5743 5750 5757 5763 5768 5774 5778 5781 5786 5790 5795 5799 5803 5806 5810 5814 5817 5821 5823 5827 5830 5832 5834 5835 5837 5838 5840 5841 5841 5842 5844 5846 5848 5848 5848 5849 5851 5852
5598 5611 5622 5638 5654 5665 5680 5690 5701 5714 5725 5736 5746 5753 5759 5764 5769 5774 5780 5783 5787 5792 5795 5799 5803 5806 5811 5814 5817 5821 5824 5826 5828 5831 5832 5834 5835 5837 5838 5839 5840 5841 5843 5845 5847 5847 5847 5848 5850
5596 5609 5621 5635 5648 5662 5675 5686 5695 5710 5721 5732 5740 5748 5755 5761 5766 5771 5775 5778 5783 5788 5792 5795 5800 5804 5806 5811 5814 5818 5821 5823 5825 5826 5829 5830 5832 5833 5835 5836 5837 5838 5840 5843 5844 5844 5845 5846 5847
5597 5607 5618 5631 5645 5657 5668 5683 5694 5706 5717 5727 5735 5744 5751 5757 5763 5768 5771 5776 5780 5784 5789 5793 5797 5800 5803 5806 5810 5814 5817 5820 5822 5823 5825 5826 5828 5829 5830 5832 5833 5835 5837 5840 5842 5843 5844 5844 5845
5593 5603 5614 5625 5635 5651 5662 5678 5691 5703 5713 5722 5729 5738 5745 5752 5758 5764 5768 5772 5777 5781 5784 5789 5793 5797 5800 5803 5806 5810 5813 5816 5818 5820 5822 5823 5824 5826 5827 5829 5831 5833 5834 5837 5839 5841 5842 5843 5844
5598 5606 5614 5626 5638 5652 5665 5677 5689 5700 5709 5717 5725 5733 5740 5747 5754 5760 5765 5769 5774 5777 5781 5785 5789 5793 5796 5799 5802 5806 5809 5812 5814 5817 5819 5820 5820 5823 5824 5826 5827 5830 5832 5833 5836 5838 5839 5840 5841
5599 5606 5619 5628 5639 5648 5662 5673 5683 5686 5704 5710 5719 5727 5735 5743 5750 5756 5761 5764 5770 5774 5778 5782 5785 5789 5793 5796 5798 5801 5803 5807 5809 5812 5815 5817 5818 5820 5822 5823 5824 5826 5829 5830 5832 5833 5835 5836 5837
5606 5610 5615 5626 5640 5645 5661 5672 5679 5690 5699 5708 5716 5723 5730 5737 5745 5751 5757 5762 5767 5770 5774 5778 5782 5785 5788 5791 5793 5795 5798 5802 5806 5808 5811 5813 5815 5817 5819 5820 5822 5823 5825 5827 5828 5830 5831 5832 5833
5603 5609 5618 5629 5638 5644 5659 5671 5678 5685 5695 5704 5712 5720 5727 5735 5742 5748 5753 5758 5762 5766 5769 5773 5777 5780 5783 5786 5788 5791 5794 5798 5804 5805 5807 5809 5811 5813 5816 5817 5819 5820 5821 5823 5824 5826 5827 5828 5829
5607 5612 5624 5636 5644 5649 5658 5667 5675 5683 5689 5696 5705 5714 5722 5730 5737 5743 5748 5753 5758 5762 5765 5768 5771 5775 5778 5780 5783 5787 5790 5794 5796 5798 5801 5804 5806 5808 5811 5813 5814 5816 5817 5819 5820 5821 5822 5823 5824
5613 5617 5626 5634 5642 5648 5654 5665 5670 5679 5685 5694 5703 5711 5718 5726 5732 5739 5745 5750 5754 5757 5760 5763 5765 5769 5772 5772 5777 5781 5785 5788 5791 5795 5797 5800 5801 5803 5805 5808 5809 5811 5812 5814 5815 5816 5818 5819 5820
5617 5623 5629 5636 5641 5647 5655 5662 5668 5676 5689 5694 5700 5708 5715 5722 5727 5733 5740 5744 5748 5752 5756 5758 5761 5764 5766 5768 5772 5775 5778 5782 5785 5789 5792 5794 5796 5798 5800 5802 5804 5805 5807 5808 5810 5812 5813 5814 5815
5627 5630 5632 5639 5642 5648 5654 5661 5670 5676 5686 5694 5700 5706 5711 5718 5723 5729 5735 5740 5744 5748 5751 5754 5756 5759 5762 5765 5767 5770 5772 5775 5778 5782 5784 5787 5790 5792 5793 5795 5797 5799 5800 5803 5805 5806 5807 5808 5809
5632 5636 5640 5643 5646 5653 5655 5662 5672 5678 5686 5691 5696 5702 5707 5714 5720 5725 5731 5735 5738 5742 5745 5748 5751 5753 5757 5759 5760 5763 5767 5769 5771 5774 5776 5779 5783 5785 5787 5789 5790 5792 5794 5796 5798 5798 5799 5801 5802
5635 5638 5642 5644 5648 5653 5659 5666 5669 5674 5681 5685 5690 5696 5703 5706 5711 5718 5725 5729 5732 5736 5740 5743 5745 5747 5750 5753 5755 5758 5760 5763 5765 5766 5770 5774 5776 5778 5780 5782 5784 5786 5787 5789 5790 5791 5792 5794 5795
5635 5638 5642 5643 5649 5652 5659 5664 5671 5675 5682 5686 5689 5696 5702 5706 5709 5711 5717 5722 5726 5730 5733 5736 5739 5741 5744 5747 5748 5751 5753 5755 5758 5761 5764 5767 5769 5771 5773 5775 5777 5778 5779 5780 5782 5784 5785 5786 5786
5636 5639 5643 5645 5650 5653 5658 5663 5666 5670 5676 5681 5686 5689 5694 5700 5704 5708 5712 5716 5719 5722 5726 5730 5734 5736 5738 5741 5744 5746 5748 5750 5752 5754 5756 5758 5760 5762 5764 5767 5769 5771 5772 5773 5775 5776 5777 5778 5778
5632 5635 5638 5642 5646 5649 5653 5658 5661 5665 5669 5672 5677 5681 5687 5692 5697 5700 5704 5708 5713 5718 5722 5725 5728 5731 5733 5734 5737 5739 5740 5743 5744 5747 5749 5750 5753 5754 5756 5759 5761 5763 5764 5765 5766 5768 5768 5769 5769
Wind_Speed
54 52 51 48 47 45 39 31 31 32 33 35 31 25 20 21 21 17 19 18 18 14 16 17 15 14 13 11 9 7 6 5 3 3 3 3 4 3 3 4 6 5 4 3 6 5 4 4 4
59 58 58 57 53 49 41 34 37 34 34 30 29 27 25 21 20 18 19 21 18 15 16 17 17 16 14 12 10 8 8 5 4 4 5 4 4 3 2 3 8 5 4 2 6 8 7 7 6
64 64 64 63 58 51 43 35 38 39 35 29 29 28 26 26 22 20 20 21 22 18 17 18 18 17 15 13 10 9 8 7 5 4 5 5 4 1 5 7 8 6 4 5 9 10 10 9 6
73 67 70 69 62 51 46 35 39 44 38 34 29 26 27 29 25 24 23 23 22 21 18 19 19 19 17 14 11 9 8 8 7 6 6 6 5 4 5 9 10 6 5 7 4 9 11 9 7
77 70 76 74 66 57 49 39 43 45 41 36 31 26 28 32 28 27 23 24 24 23 19 21 21 20 18 15 13 10 9 8 8 9 8 7 7 4 2 7 8 6 6 7 7 7 8 7 7
80 79 80 74 69 60 54 44 47 47 44 39 34 30 29 30 32 29 25 24 25 24 21 23 24 22 19 17 14 12 10 9 9 9 8 7 7 3 3 6 10 7 7 6 7 9 8 7 7
84 83 78 68 70 67 57 53 52 51 48 44 37 34 30 30 33 29 27 25 26 26 24 24 25 24 21 19 17 14 11 9 9 9 9 7 7 8 3 8 10 9 8 8 10 9 9 9 8
86 82 79 72 74 69 60 54 54 54 51 46 40 36 32 29 32 30 28 26 25 26 24 26 25 26 24 22 19 15 12 11 10 11 10 10 8 10 9 10 9 8 11 12 11 12 13 12 10
78 69 81 74 75 72 61 57 57 57 51 48 43 37 31 33 33 32 29 25 26 27 25 24 23 27 26 23 20 17 16 12 13 12 12 12 12 9 13 11 8 11 13 18 15 15 14 11 9
78 76 72 76 77 74 61 57 59 60 55 51 44 38 35 31 31 32 28 28 26 27 28 25 24 26 26 25 23 19 16 14 16 13 13 12 12 12 12 13 11 12 15 20 17 15 13 12 12
69 84 53 77 76 76 60 58 60 60 55 50 43 39 34 28 29 30 31 29 28 27 26 26 24 26 27 25 24 23 19 17 14 14 13 12 13 15 13 13 13 12 18 19 17 16 14 14 12
72 60 78 68 72 62 62 57 62 60 54 47 41 33 30 31 30 29 28 28 27 26 26 25 24 24 25 24 26 26 23 19 17 17 15 14 14 15 15 16 16 15 19 19 17 17 16 14 12
64 83 54 67 72 60 63 61 62 62 54 41 41 39 37 35 32 32 31 30 30 28 26 25 24 24 24 24 26 26 25 23 19 19 19 19 16 16 17 18 18 18 20 19 19 18 17 15 14
58 74 63 47 72 58 65 61 64 62 54 47 43 38 38 36 34 32 27 27 27 27 26 25 22 23 24 26 24 24 23 22 21 20 20 20 18 18 18 18 19 19 19 20 19 17 16 16 14
53 70 64 50 59 55 64 65 61 60 53 47 47 45 38 31 31 28 27 27 27 27 28 26 23 23 22 25 24 23 22 22 21 20 20 19 22 21 21 21 20 18 19 19 17 17 16 16 14
56 59 67 48 58 53 65 65 61 61 55 50 46 45 44 35 30 29 28 28 26 25 26 26 24 23 24 22 22 23 23 22 20 20 19 19 21 21 22 21 20 19 18 17 17 17 18 17 17
51 67 66 35 52 63 63 66 61 56 54 50 49 45 43 40 33 27 26 26 26 26 24 24 25 24 25 26 25 22 21 21 19 17 20 20 21 21 21 21 20 19 19 19 19 18 19 18 18
37 48 53 47 54 56 59 64 57 50 50 50 52 46 45 43 32 28 27 27 26 25 24 24 25 26 25 26 25 24 23 23 22 23 21 21 20 22 23 23 20 19 20 20 20 19 20 20 20
43 43 48 56 58 41 63 64 63 43 46 54 51 51 47 44 36 31 29 29 26 24 23 23 24 25 26 25 26 27 26 26 25 25 23 21 21 22 23 22 20 20 21 20 20 22 22 21 21
37 41 50 60 58 47 56 60 64 49 47 50 50 48 47 43 37 34 31 29 25 23 24 23 22 24 25 28 29 31 30 29 27 25 25 24 22 22 24 22 21 21 21 22 23 24 24 23 22
32 41 52 48 55 57 54 59 64 56 45 48 47 46 43 41 35 32 29 28 27 26 24 24 24 23 24 26 29 28 27 23 20 23 24 25 24 25 26 25 24 24 24 24 24 25 25 25 25
25 39 46 52 51 52 44 54 62 60 51 45 43 45 46 40 37 36 32 31 28 24 23 23 24 23 23 24 26 23 25 27 27 27 27 26 27 27 27 27 26 26 26 26 26 26 28 26 25
20 34 45 54 48 52 38 60 59 56 54 46 43 45 44 42 35 34 32 28 28 28 26 25 25 24 25 25 30 28 28 35 32 28 25 27 29 30 31 31 31 29 28 28 27 28 28 26 26
23 27 35 43 48 54 36 50 54 51 45 42 41 43 44 43 41 38 33 33 31 29 25 25 24 23 23 19 23 29 25 35 30 29 30 31 32 33 33 35 35 33 30 30 30 29 28 29 29
24 22 30 38 45 46 45 48 50 53 46 37 34 38 41 41 39 38 34 31 29 28 28 26 24 24 24 25 27 25 32 33 33 35 35 30 31 32 34 35 37 36 35 34 34 33 31 31 31
22 15 19 36 44 37 26 40 41 43 43 39 34 35 36 37 36 37 35 34 33 31 29 28 28 27 27 26 26 28 25 32 38 34 27 28 33 35 35 34 35 37 37 37 36 35 33 33 33
14 13 19 23 34 34 26 36 32 42 41 41 40 41 39 41 37 38 35 36 35 33 28 24 27 28 26 28 30 28 28 26 27 28 29 32 34 35 37 36 35 33 33 35 35 36 36 35 36
16 12 11 14 25 22 28 25 31 43 38 37 32 31 33 34 36 40 38 38 38 36 34 31 26 23 24 29 28 29 29 26 25 29 30 31 32 36 37 36 35 35 35 36 38 37 38 38 39
9 12 11 10 17 23 28 26 27 28 33 38 38 39 41 41 35 33 35 40 41 40 37 33 29 25 23 18 25 30 28 28 29 31 31 31 32 34 36 37 36 36 37 38 39 39 39 41 42
26 23 21 21 20 20 17 20 26 30 35 42 44 39 38 35 33 31 31 36 37 36 35 35 34 33 31 27 26 25 30 35 32 34 34 34 33 36 36 37 38 38 38 39 40 41 42 43 43
Wind_Direction
243 241 242 238 236 238 237 237 235 234 229 230 228 226 217 216 214 217 214 218 220 211 206 206 209 206 201 194 189 182 174 185 189 183 169 153 152 132 103 199 180 167 152 320 240 223 209 214 185
239 237 237 238 237 238 234 231 240 240 236 232 229 224 220 215 213 214 213 209 213 211 208 208 207 210 206 199 194 179 168 182 195 185 164 153 130 126 190 135 173 175 210 241 223 231 217 198 205
232 229 232 235 235 235 235 228 234 239 237 232 227 219 213 216 210 212 207 209 214 214 211 209 209 208 208 206 199 186 177 183 193 197 163 158 142 144 250 230 188 185 200 215 212 211 217 202 227
225 223 225 232 239 233 232 221 226 236 235 234 226 216 208 213 208 209 207 211 213 213 215 212 210 207 207 206 203 198 186 192 193 202 188 184 173 359 326 220 194 193 212 237 234 215 216 226 216
220 220 220 232 236 231 230 213 219 232 232 232 228 219 209 207 210 212 209 210 212 214 215 220 211 209 209 208 207 203 195 200 202 210 209 212 240 306 333 170 208 196 210 205 216 207 219 223 229
216 216 219 224 234 231 227 214 221 227 230 228 225 220 213 206 206 211 210 210 214 213 214 218 212 210 212 212 211 206 201 205 213 215 216 213 218 233 180 168 168 182 212 221 208 190 203 223 235
215 217 214 218 231 226 222 216 217 223 228 227 220 219 213 203 205 206 209 206 212 214 215 213 210 212 213 214 212 205 200 203 214 215 216 220 209 201 159 178 179 176 205 210 201 202 215 225 227
215 214 214 205 217 224 215 210 216 217 223 224 219 219 213 202 203 207 208 206 209 211 212 213 212 211 211 212 212 205 199 202 215 207 209 210 200 195 201 164 177 197 211 210 199 213 231 245 256
214 212 213 200 206 216 205 203 209 215 216 222 221 214 208 207 203 205 208 209 210 213 212 210 214 214 216 210 208 205 206 201 212 212 216 212 212 198 197 202 221 241 226 215 211 221 234 243 263
210 210 208 202 198 203 198 201 208 213 213 217 217 214 210 210 208 201 205 208 209 211 215 215 215 216 216 213 216 214 211 208 209 208 213 218 220 214 200 215 229 242 219 207 220 226 234 243 249
207 207 200 206 199 197 191 193 204 211 214 217 220 218 212 213 215 211 205 208 210 211 214 215 215 218 215 212 216 216 214 204 199 207 219 221 221 230 228 223 223 227 205 212 221 230 238 245 255
203 204 208 205 207 203 188 191 201 210 213 213 214 214 211 209 212 215 210 208 210 215 215 213 216 218 218 214 218 220 218 215 218 220 210 215 234 234 229 229 221 218 215 218 223 228 237 243 241
198 200 190 207 204 206 190 187 198 206 205 204 207 209 205 202 207 215 212 210 210 211 212 215 216 217 218 219 224 225 223 223 220 217 220 226 232 236 236 231 220 218 218 222 227 230 231 231 235
198 201 202 193 204 202 192 186 196 203 205 199 201 205 201 198 202 208 212 212 213 214 213 217 218 217 221 223 222 224 225 224 223 227 227 229 223 230 234 228 221 217 219 222 226 227 227 227 232
191 199 204 191 197 200 192 189 195 201 202 201 202 204 206 212 208 204 209 213 213 215 215 214 216 217 220 224 225 223 221 222 228 230 229 229 227 227 228 225 218 218 221 225 217 221 224 230 230
195 195 191 170 199 195 189 190 193 201 202 200 204 207 211 212 206 207 210 216 216 215 218 220 218 216 218 216 221 225 232 232 232 231 232 229 229 225 222 223 215 224 221 217 210 216 228 228 236
192 193 192 197 180 192 186 189 195 198 201 203 201 203 206 205 205 211 215 217 216 215 216 220 220 218 222 227 226 226 227 230 230 227 223 227 223 219 219 220 221 220 219 218 224 220 220 232 241
188 202 203 187 193 178 186 187 192 195 201 200 204 204 206 207 213 212 217 222 221 221 222 219 222 221 219 226 227 224 229 230 230 228 225 228 227 228 226 224 221 221 221 226 226 225 227 233 239
197 198 200 187 190 182 190 188 187 188 187 200 201 206 212 216 218 212 217 222 221 225 228 229 229 227 227 229 223 224 223 223 224 226 225 228 233 231 227 221 218 218 222 225 231 231 235 239 240
159 199 197 202 186 187 189 192 193 194 202 206 208 205 209 213 213 213 216 223 224 223 228 230 231 230 228 226 226 227 224 226 225 226 228 231 233 228 224 223 222 224 227 230 233 236 238 241 240
158 190 196 194 186 191 185 195 198 195 194 204 207 210 216 216 214 217 218 221 223 222 228 232 230 234 234 228 229 233 231 228 231 228 228 231 230 230 228 228 227 230 233 234 235 237 238 242 245
170 185 180 186 193 197 202 196 200 202 205 208 212 213 215 216 216 217 217 219 222 225 229 234 236 234 238 229 230 222 227 223 224 227 227 231 233 234 234 234 230 231 236 237 237 237 240 246 244
157 172 184 190 200 192 208 200 200 204 209 209 215 215 215 212 213 215 220 221 224 226 229 234 235 233 235 241 228 225 246 229 232 237 234 234 235 235 237 237 234 234 235 236 237 240 246 245 242
157 177 189 198 200 205 199 203 204 203 207 208 207 212 211 213 216 219 219 220 222 225 230 234 236 231 242 247 245 231 237 222 228 231 237 235 235 237 238 237 235 235 236 238 241 245 247 246 247
199 191 189 198 203 205 198 204 202 203 207 211 218 219 213 213 218 221 222 223 224 227 231 232 232 228 232 236 242 240 242 238 230 235 237 242 245 244 243 242 239 235 237 241 245 247 250 249 250
150 169 202 204 204 204 219 188 209 208 209 215 218 217 214 218 221 223 222 221 222 223 227 232 229 224 225 232 238 244 241 228 224 232 242 247 248 248 249 248 246 241 239 239 243 247 252 252 253
196 192 199 207 213 211 216 212 213 207 208 218 219 220 220 214 214 220 221 223 225 226 224 230 231 227 229 235 238 241 243 248 251 237 246 251 249 247 247 247 248 248 245 245 246 250 253 254 256
138 136 163 199 213 220 224 213 223 229 221 225 233 240 234 225 225 221 221 223 224 222 223 227 230 232 236 236 241 246 250 248 248 250 254 253 249 246 247 246 245 246 247 248 250 251 253 253 256
200 186 191 194 204 209 214 225 228 220 222 226 241 246 241 238 233 232 231 227 225 226 226 227 229 238 242 242 242 245 251 253 250 251 251 252 251 251 249 247 246 247 249 250 252 253 254 256 259
226 235 237 230 217 212 206 216 223 222 222 230 232 235 231 231 224 224 228 233 232 237 238 236 235 238 243 242 244 249 249 249 249 252 254 255 255 255 253 253 253 252 252 253 255 256 260 263 267